Simultaneous Nadir Overpasses (SNOs) Predictions

Prediction of SNOs between TERRA and METOP-C Satellite Orbit:

Table of predicted SNOs for the next 14.0 days since TLE Epoch: 8/24/2019
Index Date (TERRA) Time (TERRA) Lat,Lon (TERRA) SZA (TERRA ) Date (METOP-C) Time (METOP-C) Lat,Lon (METOP-C) SZA (METOP-C ) Distance(km) Time Diff (sec)
1 08/24/2019 02:14:54 81.31,-166.53 72.84 08/24/2019 02:15:32 81.31,-166.36 72.88 2.84 38
2 08/26/2019 20:59:41 -81.31, 92.24 106.20 08/26/2019 20:59:13 -81.31, 92.35 106.20 1.88 28
3 08/26/2019 21:49:07 81.31, -99.98 73.84 08/26/2019 21:49:53 81.31, -99.85 73.88 2.05 46
4 08/29/2019 16:33:55 -81.31, 158.79 105.17 08/29/2019 16:33:35 -81.31, 158.93 105.17 2.28 20
5 08/29/2019 17:23:21 81.32, -33.45 74.86 08/29/2019 17:24:15 81.31, -33.34 74.90 1.82 54
6 09/01/2019 12:08:10 -81.30,-135.06 104.19 09/01/2019 12:07:58 -81.31,-134.89 104.17 3.14 12
7 09/01/2019 12:57:36 81.30, 32.67 75.84 09/01/2019 12:58:38 81.31, 32.77 75.89 2.03 62
8 09/04/2019 07:42:23 -81.30, -68.57 103.13 09/04/2019 07:42:20 -81.30, -68.70 103.15 2.28 3




NCC Satellite Simultaneous Nadir Overpasses (SNOs) Prediction Service
